This demonstration page uses our WeatherBlox Daily Observations layout. Learn more.

Left ArrowRight Arrow

Hourly Observations for December 15, 2019

Temp ( °F °C ) Dew Point ( °F °C ) Humidity (%) Winds ( mph kmh ) Pressure ( in mb ) Visibility ( mi km ) Precip ( " mm )
12:56 am 00:56 Cloudy with Light Snow 20 -6.7 17 -8.3 89 89 ESE 12 19 29.99 1016 9 14 0.00 0.00
1:07 am 01:07 Cloudy with Light Snow 19 -7 18 -8 93 93 E 13 20 30.07 1018 9 14 0.00 0.00
1:17 am 01:17 Cloudy with Light Snow 19 -7 18 -8 93 93 ESE 10 17 30.08 1019 9 14 0.00 0.00
1:24 am 01:24 Cloudy with Light Snow 19 -7 18 -8 93 93 ESE 9 15 30.08 1019 9 14 0.00 0.00
1:34 am 01:34 Cloudy with Light Snow 19 -7 18 -8 93 93 ESE 9 15 30.08 1019 8 13 0.00 0.00
1:56 am 01:56 Cloudy with Light Snow 19 -7.2 17 -8.3 92 92 E 8 13 30.01 1016 5 8 0.00 0.00
2:12 am 02:12 Cloudy with Light Snow 19 -7 18 -8 93 93 E 9 15 30.08 1019 2 3 0.00 0.00
2:26 am 02:26 Cloudy with Light Snow 19 -7 18 -8 93 93 E 10 17 30.08 1019 2 3 0.00 0.00
2:43 am 02:43 Cloudy with Light Snow 19 -7 18 -8 93 93 E 9 15 30.08 1019 2 3 0.00 0.00
2:56 am 02:56 Cloudy with Light Snow 19 -7.2 17 -8.3 92 92 E 8 13 30.01 1016 3 4 0.01 0.25
3:22 am 03:22 Cloudy with Light Snow 19 -7 18 -8 93 93 E 8 13 30.09 1019 2 3 0.00 0.00
3:26 am 03:26 Cloudy with Light Snow 19 -7 18 -8 93 93 E 7 11 30.08 1019 2 3 0.00 0.00
3:38 am 03:38 Cloudy with Light Snow 19 -7 18 -8 93 93 ENE 7 11 30.09 1019 5 8 0.00 0.00
3:56 am 03:56 Cloudy with Light Snow 19 -7.2 17 -8.3 92 92 E 6 9 30.02 1017 9 14 0.01 0.25
4:12 am 04:12 Cloudy with Light Snow 19 -7 18 -8 93 93 E 7 11 30.09 1019 7 11 0.01 0.25
4:56 am 04:56 Cloudy with Light Snow 19 -7.2 17 -8.3 92 92 ESE 5 7 30.03 1017 6 10 0.01 0.25
5:56 am 05:56 Cloudy with Light Snow 19 -7.2 17 -8.3 92 92 E 6 9 30.03 1017 7 11 0.01 0.25
6:29 am 06:29 Cloudy with Light Snow 19 -7 18 -8 93 93 E 9 15 30.09 1019 10 16 0.00 0.00
6:40 am 06:40 Cloudy with Light Snow 19 -7 18 -8 93 93 E 9 15 30.09 1019 10 16 0.00 0.00
6:56 am 06:56 Cloudy with Light Snow 19 -7.2 17 -8.3 92 92 E 7 11 30.03 1017 9 14 0.00 0.00
7:44 am 07:44 Cloudy 19 -7 18 -8 93 93 E 7 11 30.10 1019 10 16 0.00 0.00
7:56 am 07:56 Cloudy with Light Snow 19 -7.2 16 -8.9 88 88 ESE 6 9 30.04 1017 9 14 0.00 0.00
8:56 am 08:56 Cloudy 19 -7.2 17 -8.3 92 92 E 7 11 30.04 1017 10 16 0.00 0.00
9:56 am 09:56 Cloudy 20 -6.7 17 -8.3 89 89 ESE 8 13 30.05 1018 10 16 0.00 0.00
10:56 am 10:56 Cloudy 20 -6.7 17 -8.3 89 89 SE 7 11 30.06 1018 10 16 0.00 0.00
11:23 am 11:23 Cloudy 21 -6 18 -8 86 86 SSE 5 7 30.12 1020 10 16 0.00 0.00
11:37 am 11:37 Cloudy 21 -6 18 -8 86 86 SE 5 7 30.11 1020 10 16 0.00 0.00
11:56 am 11:56 Cloudy 23 -5 18 -7.8 81 81 SSE 3 6 30.05 1018 10 16 0.01 0.25
12:10 pm 12:10 Cloudy 23 -5 18 -8 80 80 Calm 30.10 1019 10 16 0.00 0.00
12:48 pm 12:48 Cloudy 27 -3 21 -6 80 80 Calm 30.07 1018 9 14 0.00 0.00
12:56 pm 12:56 Cloudy 28 -2.2 21 -6.1 75 75 Calm 30.03 1017 10 16 0.00 0.00
1:22 pm 13:22 Cloudy 27 -3 19 -7 74 74 Calm 30.07 1018 10 16 0.00 0.00
1:56 pm 13:56 Cloudy 28 -2.2 21 -6.1 75 75 Calm 30.02 1017 10 16 0.00 0.00
2:56 pm 14:56 Cloudy 26 -3.3 18 -7.8 71 71 Calm 30.01 1016 10 16 0.00 0.00
3:56 pm 15:56 Cloudy 25 -3.9 19 -7.2 78 78 Calm 30.04 1017 10 16 0.00 0.00
4:56 pm 16:56 Mostly Cloudy 21 -6.1 14 -10 74 74 SE 3 6 30.06 1018 10 16 0.00 0.00
5:21 pm 17:21 Partly Cloudy 19 -7 12 -11 73 73 SE 5 7 30.14 1021 9 14 0.00 0.00
5:32 pm 17:32 Mostly Cloudy 18 -8 12 -11 79 79 Calm 30.15 1021 10 16 0.00 0.00
5:56 pm 17:56 Mostly Cloudy 18 -7.8 14 -10 84 84 SE 3 6 30.09 1019 10 16 0.00 0.00
6:11 pm 18:11 Partly Cloudy 18 -8 12 -11 79 79 ESE 3 6 30.16 1021 9 14 0.00 0.00
6:31 pm 18:31 Mostly Cloudy 16 -9 10 -12 79 79 Calm 30.18 1022 7 11 0.00 0.00
6:56 pm 18:56 Mostly Cloudy with Haze 16 -8.9 11 -11.7 80 80 Calm 30.11 1020 6 10 0.00 0.00
7:24 pm 19:24 Mostly Clear with Mist and Fog 16 -9 10 -12 79 79 Calm 30.19 1022 3 5 0.00 0.00
7:28 pm 19:28 Hazy 16 -9 10 -12 79 79 Calm 30.19 1022 2 3 0.00 0.00
7:38 pm 19:38 Mostly Cloudy with Light Snow 16 -9 10 -12 79 79 NNE 3 6 30.19 1022 1 1 0.00 0.00
7:48 pm 19:48 Mostly Cloudy with Light Snow 16 -9 10 -12 79 79 Calm 30.19 1022 1 1 0.00 0.00
7:50 pm 19:50 Partly Cloudy with Scattered Snow Showers 16 -9 10 -12 79 79 Calm 30.20 1023 1 2 0.00 0.00
7:56 pm 19:56 Partly Cloudy with Scattered Snow Showers 14 -10 10 -12.2 84 84 Calm 30.12 1020 2 3 0.00 0.00
8:04 pm 20:04 Partly Cloudy with Mist and Fog 12 -11 9 -13 85 85 Calm 30.22 1023 4 6 0.00 0.00
8:25 pm 20:25 Partly Cloudy with Mist and Fog 12 -11 9 -13 85 85 Calm 30.22 1023 2 3 0.00 0.00
8:31 pm 20:31 Mostly Cloudy with Light Snow 12 -11 9 -13 85 85 Calm 30.21 1023 1 2 0.00 0.00
8:34 pm 20:34 Mostly Cloudy with Light Snow 12 -11 7 -14 79 79 Calm 30.21 1023 1 1 0.00 0.00
8:38 pm 20:38 Mostly Cloudy with Light Snow 10 -12 7 -14 85 85 Calm 30.22 1023 1 1 0.00 0.00
8:43 pm 20:43 Partly Cloudy with Isolated Snow Showers 10 -12 7 -14 85 85 Calm 30.22 1023 0 0 0.00 0.00
8:56 pm 20:56 Mostly Clear with Heavy Snow 11 -11.7 6 -14.4 81 81 SSE 3 6 30.14 1021 0 0 0.00 0.00
9:40 pm 21:40 Cloudy with Light Snow 10 -12 9 -13 92 92 S 6 9 30.24 1024 1 1 0.00 0.00
9:54 pm 21:54 Mostly Cloudy with Light Snow 12 -11 10 -12 92 92 SSW 3 6 30.23 1024 1 2 0.00 0.00
9:56 pm 21:56 Mostly Cloudy with Light Snow 13 -10.6 11 -11.7 92 92 SSW 3 6 30.14 1021 2 3 0.00 0.00
9:59 pm 21:59 Partly Cloudy with Mist and Fog 12 -11 10 -12 92 92 SSW 5 7 30.24 1024 4 6 0.00 0.00
10:56 pm 22:56 Clear 16 -8.9 14 -10 92 92 SSW 3 6 30.15 1021 7 11 0.00 0.00
11:49 pm 23:49 Mostly Clear with Mist and Fog 14 -10 10 -12 85 85 Calm 30.23 1024 2 2 0.00 0.00
11:53 pm 23:53 Mostly Cloudy with Light Snow 14 -10 10 -12 85 85 Calm 30.22 1023 1 1 0.00 0.00
11:56 pm 23:56 Mostly Cloudy with Light Snow 14 -10 11 -11.7 88 88 Calm 30.14 1021 1 1 0.00 0.00

Powered by AerisWeather